Location: Saint Louis
(38.6272°N, 90.1978°W)
Time: 05:12:20
(UTC-06:00)

Hubble Space Telescope - Visible Passes

Search period start: 02 March 2015 00:00
Search period end: 12 March 2015 01:00
Orbit: 543 x 548 km, 28.5° (Epoch: 01 March)

Date Brightness Start Highest point End Pass type
(mag) Time Alt. Az. Time Alt. Az. Time Alt. Az.
02 Mar 2.9 04:27:42 18° SSE 04:27:42 18° SSE 04:29:45 10° SE visible
02 Mar 3.0 06:04:54 10° SW 06:07:24 15° SSW 06:09:53 10° SSE visible
03 Mar 3.1 04:19:58 16° SSE 04:19:58 16° SSE 04:21:27 10° SE visible
03 Mar 3.1 05:56:59 10° SW 05:59:05 13° SSW 06:01:08 10° SSE visible
04 Mar 3.3 04:12:16 13° SSE 04:12:16 13° SSE 04:13:05 10° SE visible
04 Mar 3.1 05:49:20 10° SW 05:50:46 11° SSW 05:52:07 10° S visible
05 Mar 3.6 04:04:35 10° SE 04:04:35 10° SE 04:04:39 10° SE visible
